This is the latest recevied weather packets stored in our database for station/object HB9TJR-3. If no packets are shown the sender has not sent any weather packets the latest 10 day(s).
| Time | Temp. | Humidity | Pressure | Rain* | Wind** | Luminosity | Snow |
|---|---|---|---|---|---|---|---|
| 1787831011 | 22.78° C | 62% | 867.2 hPa | 0 mm | - | - | - |
| 1787830055 | 22.22° C | 60% | 867.2 hPa | 0 mm | - | - | - |
| 1787830051 | 22.22° C | 60% | 867.2 hPa | 0 mm | - | - | - |
| 1787829094 | 22.22° C | 63% | 867.3 hPa | 0 mm | - | - | - |
| 1787829091 | 22.22° C | 63% | 867.3 hPa | 0 mm | - | - | - |
| 1787828131 | 22.22° C | 65% | 867.3 hPa | 0 mm | - | - | - |
| 1787827171 | 22.22° C | 63% | 867.2 hPa | 0 mm | - | - | - |
| 1787826214 | 22.78° C | 63% | 867.2 hPa | 0 mm | - | - | - |
| 1787826211 | 22.78° C | 63% | 867.2 hPa | 0 mm | - | - | - |
| 1787825255 | 22.22° C | 59% | 867.3 hPa | 0 mm | - | - | - |
| 1787825250 | 22.22° C | 59% | 867.3 hPa | 0 mm | - | - | - |
| 1787824301 | 21.67° C | 64% | 867.2 hPa | 0 mm | - | - | - |
| 1787824291 | 21.67° C | 64% | 867.2 hPa | 0 mm | - | - | - |
| 1787823334 | 21.67° C | 59% | 867.2 hPa | 0 mm | - | - | - |
| 1787823330 | 21.67° C | 59% | 867.2 hPa | 0 mm | - | - | - |
| 1787822374 | 21.67° C | 63% | 867.2 hPa | 0 mm | - | - | - |
| 1787822371 | 21.67° C | 63% | 867.2 hPa | 0 mm | - | - | - |
| 1787821414 | 21.11° C | 63% | 867.3 hPa | 0 mm | - | - | - |
| 1787821411 | 21.11° C | 63% | 867.3 hPa | 0 mm | - | - | - |
| 1787820451 | 20.56° C | 65% | 867.3 hPa | 0 mm | - | - | - |
| 1787819491 | 20.56° C | 69% | 867.3 hPa | 0 mm | - | - | - |
| 1787818531 | 20.56° C | 68% | 867.4 hPa | 0 mm | - | - | - |
| 1787817572 | 20.56° C | 67% | 867.6 hPa | 0 mm | - | - | - |
| 1787816612 | 20.56° C | 68% | 867.6 hPa | 0 mm | - | - | - |
| 1787815651 | 20.56° C | 68% | 867.4 hPa | 0 mm | - | - | - |
* Rain latest hour (hover to see other rain measurements)
** Current wind speed in m/s (hover to see current wind gust speed)